This demonstration page uses our WeatherBlox Daily Observations layout. Learn more.

Left ArrowRight Arrow

39.92423, -83.80882

Hourly Observations for October 5, 2020

Temp ( °F °C ) Dew Point ( °F °C ) Humidity (%) Winds ( mph kmh ) Pressure ( in mb ) Visibility ( mi km ) Precip ( " mm )
12:56 am 00:56 Clear 43 6.1 43 6.1 100 100 WNW 7 11 30.23 1024 10 16.0934 0 0
1:56 am 01:56 Clear 40 4.4 40 4.4 100 100 Calm 30.22 1023 10 16.0934 0 0
2:56 am 02:56 Clear 40 4.4 40 4.4 100 100 Calm 30.24 1024 10 16.0934 0 0
3:56 am 03:56 Clear 38 3.3 38 3.3 100 100 WNW 5 7 30.24 1024 10 16.0934 0 0
4:56 am 04:56 Clear 38 3.3 38 3.3 100 100 WNW 3 6 30.25 1025 10 16.0934 0 0
5:03 am 05:03 Partly Cloudy 37 3 37 3 100 100 Calm 30.28 1025 9 14.48406 0 0
5:12 am 05:12 Mostly Cloudy 37 3 37 3 100 100 NNW 3 6 30.28 1025 9 14.48406 0 0
5:37 am 05:37 Cloudy 39 4 39 4 100 100 NNW 6 9 30.29 1026 10 16.0934 0.01 0.254
5:56 am 05:56 Cloudy with Mist and Fog 41 5 41 5 100 100 NNW 6 9 30.28 1025 5 8.0467 0.01 0.254
6:08 am 06:08 Cloudy with Mist and Fog 41 5 41 5 100 100 NNW 6 9 30.29 1026 2.5 4.02335 0 0
6:17 am 06:17 Cloudy with Mist and Fog 41 5 41 5 100 100 N 6 9 30.29 1026 1 1.60934 0 0
6:38 am 06:38 Cloudy with Mist and Fog 41 5 41 5 100 100 NNW 7 11 30.3 1026 0.75 1.207005 0 0
6:56 am 06:56 Cloudy with Fog 41 5 41 5 100 100 NNE 5 7 30.29 1026 0.5 0.80467 0 0
7:09 am 07:09 Cloudy with Fog 41 5 41 5 100 100 NNW 3 6 30.3 1026 0.25 0.402335 0 0
7:56 am 07:56 Cloudy with Fog 41 5 41 5 100 100 NE 3 6 30.29 1026 N/A 0 0
8:56 am 08:56 Cloudy with Fog 42 5.6 42 5.6 100 100 Calm 30.32 1027 0.25 0.402335 0 0
9:56 am 09:56 Cloudy with Fog 43 6.1 43 6.1 100 100 NNE 5 7 30.32 1027 0.25 0.402335 0 0
10:06 am 10:06 Cloudy with Fog 45 7 45 7 100 100 ENE 3 6 30.32 1027 0.5 0.80467 0 0
10:17 am 10:17 Cloudy with Mist and Fog 45 7 45 7 100 100 E 7 11 30.32 1027 1 1.60934 0 0
10:23 am 10:23 Cloudy with Mist and Fog 45 7 45 7 100 100 NE 5 7 30.32 1027 2 3.21868 0 0
10:34 am 10:34 Cloudy with Mist and Fog 45 7 45 7 100 100 ENE 5 7 30.32 1027 4 6.43736 0 0
10:53 am 10:53 Cloudy with Mist and Fog 46 8 46 8 100 100 E 3 6 30.32 1027 5 8.0467 0 0
10:56 am 10:56 Cloudy with Mist and Fog 46 7.8 46 7.8 100 100 E 6 9 30.32 1027 5 8.0467 0 0
11:52 am 11:52 Cloudy 46 8 46 8 100 100 Calm 30.33 1027 8 12.87472 0 0
11:56 am 11:56 Cloudy 47 8.3 47 8.3 100 100 Calm 30.33 1027 9 14.48406 0 0
12:30 pm 12:30 Cloudy 48 9 48 9 100 100 VRB 5 7 30.32 1027 10 16.0934 0 0
12:56 pm 12:56 Cloudy 50 10 48 8.9 93 93 VRB 3 6 30.31 1027 9 14.48406 0 0
1:40 pm 13:40 Cloudy 52 11 48 9 88 88 VRB 3 6 30.29 1026 10 16.0934 0 0
1:56 pm 13:56 Cloudy 51 10.6 48 8.9 89 89 VRB 5 7 30.29 1026 10 16.0934 0 0
2:24 pm 14:24 Partly Cloudy 54 12 45 7 72 72 Calm 30.26 1025 10 16.0934 0 0
2:42 pm 14:42 Mostly Cloudy 55 13 46 8 72 72 VRB 6 9 30.25 1024 10 16.0934 0 0
2:56 pm 14:56 Partly Cloudy 53 11.7 45 7.2 74 74 Calm 30.26 1025 10 16.0934 0 0
3:56 pm 15:56 Partly Cloudy 57 13.9 42 5.6 58 58 VRB 3 6 30.24 1024 10 16.0934 0 0
4:56 pm 16:56 Sunny 58 14.4 42 5.6 56 56 Calm 30.21 1023 10 16.0934 0 0
5:56 pm 17:56 Sunny 57 13.9 40 4.4 53 53 SSW 3 6 30.19 1022 10 16.0934 0 0
6:56 pm 18:56 Sunny 53 11.7 45 7.2 74 74 Calm 30.18 1022 10 16.0934 0.01 0.254
7:56 pm 19:56 Clear 45 7.2 43 6.1 93 93 Calm 30.19 1022 10 16.0934 0 0
8:56 pm 20:56 Clear 44 6.7 43 6.1 96 96 Calm 30.18 1022 10 16.0934 0 0
9:56 pm 21:56 Clear 44 6.7 41 5 89 89 SE 5 7 30.17 1022 10 16.0934 0 0
10:56 pm 22:56 Clear 42 5.6 41 5 96 96 SE 7 11 30.17 1022 10 16.0934 0 0
11:56 pm 23:56 Clear 44 6.7 42 5.6 93 93 SSE 7 11 30.16 1021 10 16.0934 0 0

Powered by AerisWeather